FENGYUN 1C DEB

Satellite information

Favourite Embed

Satellite Type and Status

DEBRISIN ORBIT

Key statistics

Satellite FENGYUN 1C DEB at a glance.

Uptime

9610

Days in orbit

Revolutions

≈ 14.1

Per day

Orbit

SSO

Sun Synchronous Orbit

Inclination

98.9

Latest

Satellite identification and parameters

Extended collection of information and parameters for FENGYUN 1C DEB.

Object identification

Identified? True

Debris? True

Object name: FENGYUN 1C DEB

International designator: 1999-025KY

Object number (NORAD): 29974

Object ID (CCSDS): 29974

Country: PEOPLES REPUBLIC OF CHINA (PRC)

Current information (Y/N): Y

RCS size: SMALL

Orbital parameters

Period: 101.83 minutes

Inclination: 98.898 deg

SMA: 7223.418 km

Apoapsis: 878.324 km

Periapsis: 812.241 km

RAAN: 327.3484 deg

Eccentricy: 0.00457421

Argument of periapsis: 17.956 deg

Mean anomaly: 105.795 deg

Mean motion: 14.14127794 rev/day

Mean motion (dot): 0.00003504 rev/day2

B* drag term: 0.0018441275 1/REarth

Two-line elements (TLE)

Creation date: Aug. 31, 2025, 2:26 a.m.

Reference frame: TEME

Reference center: EARTH

Epoch: Aug. 30, 2025, 6:26 p.m. UTC

TLE line 0: 0 FENGYUN 1C DEB

TLE line 1: 1 29974U 99025KY 25242.76852042 .00003504 00000-0 18441-2 0 9997

TLE line 2: 2 29974 98.8980 327.3484 0045742 17.9560 105.7950 14.14127794954551

Live tracking on map

Real-time ground track for satellite FENGYUN 1C DEB.

In-orbit conjunctions

A list of the most updated potential collisions computed for object FENGYUN 1C DEB.

Target Orbit TCA Probability of collision Miss distance Type
CZ-6A DEB SSO 2024-11-15 15:46:38 0.0001496023 612.0 (m) DEBRIS
METEOR 1-5 DEB LEO 2024-09-04 16:03:29 0.0008808097 37.0 (m) DEBRIS

Associated space launch

Chinese polar orbiting meteorological satellite

FENGYUN 1C DEB was lifted into orbit during the mission ‘Long March 4B | Feng Yun 1C’, on board a Long March 4B space rocket.

The launch took place on May 10, 1999, 1:33 a.m. from Launch Complex 7.

For more information about the launch, click the button.

Launch to space Long March 4B | Feng Yun 1C
Long March 4B | Feng Yun 1C

Agency: N/A

Status: Launch Successful

Launch date: May 10, 1999, 1:33 a.m. UTC

Rocket: Long March 4B

Launch pad: Launch Complex 7

Location: Taiyuan Satellite Launch Center, People's Republic of China

...

Latest news about this satellite

There are no fresh news available about this satellite. Check back as we update our databases every day.


Newsletter sign-up

Weekly statistics, charts and insights to help you stay on top of the space industry.